Wind_Speed
14 15 15 15 14 15 16 16 17 17 17 17 17 18 17 17 17 17 17 18 20 20 20 21 21 21 21 21 21 21 21 20 20 19 20 20 20 20 20 21 22 23 24
14 15 15 15 15 15 16 17 17 17 18 18 18 18 17 17 18 18 19 19 19 19 20 20 20 20 20 21 22 22 21 21 21 21 21 21 21 21 21 21 21 22 24
14 15 15 15 16 16 16 17 17 18 19 18 18 18 18 19 19 19 20 20 20 20 20 20 20 20 20 20 21 21 21 21 22 22 22 22 22 21 21 21 21 22 23
15 16 16 16 17 17 17 17 18 18 18 18 18 19 19 19 20 20 19 19 20 20 19 20 20 19 19 20 20 20 20 21 21 21 21 21 21 21 20 21 21 22 22
16 16 16 17 17 17 17 17 17 18 19 19 19 19 20 20 20 20 20 20 20 20 20 20 19 19 19 19 19 20 20 20 20 20 21 21 20 20 20 21 21 21 21
17 17 17 17 17 17 18 18 18 19 20 20 19 19 19 19 19 20 20 20 20 20 20 19 18 18 18 18 19 19 20 20 20 21 21 20 20 20 20 21 21 21 21
19 19 19 19 19 18 19 19 19 19 19 19 19 19 19 20 20 20 20 20 20 20 20 19 18 18 18 19 19 19 19 19 20 21 20 20 21 20 20 21 21 21 21
20 20 20 20 20 20 20 20 20 20 20 19 19 19 19 20 20 20 21 20 20 20 20 19 19 19 19 19 19 20 20 20 20 20 20 20 21 21 21 21 22 22 22
20 21 21 21 21 22 22 21 21 21 21 20 19 19 19 20 20 20 20 21 20 20 20 19 20 20 20 20 20 21 21 21 21 21 20 21 22 22 21 21 21 22 21
20 21 21 21 21 22 22 22 21 20 19 19 20 20 20 20 20 20 21 21 20 20 19 20 20 20 20 21 21 21 21 21 22 22 21 22 22 22 22 22 22 22 22
20 21 21 21 21 22 22 21 21 20 19 19 19 20 20 20 20 21 21 20 20 19 19 19 19 19 20 20 20 20 20 20 21 21 22 22 23 23 22 22 22 23 23
21 22 22 22 22 22 22 22 21 20 20 20 19 19 20 20 21 20 20 19 19 18 18 19 19 20 20 20 20 20 20 20 20 21 22 22 21 21 21 22 22 23 23
22 22 22 22 22 22 22 21 21 21 21 20 20 20 20 20 20 20 19 19 19 19 19 18 19 20 20 20 19 20 20 20 20 20 21 21 20 21 21 22 22 22 23
22 22 22 22 22 22 22 21 21 22 21 21 21 20 20 20 20 20 20 19 19 19 19 18 18 18 18 18 19 19 18 19 19 20 20 20 21 21 22 22 22 22 22
22 23 23 22 22 22 21 21 22 21 21 21 21 21 20 20 20 20 19 19 19 19 18 18 18 17 17 17 17 17 17 18 18 19 19 20 20 20 21 22 22 22 23
21 22 22 21 21 21 20 19 20 21 20 20 20 20 20 20 20 20 19 19 19 18 17 17 16 16 16 17 17 17 17 18 19 19 19 20 20 20 21 22 22 21 22
21 20 20 20 20 19 19 19 19 20 20 20 19 19 19 19 19 19 19 18 18 17 17 16 16 17 17 17 17 17 17 18 18 19 19 19 20 20 21 21 21 21 21
21 20 20 19 19 19 18 18 18 18 18 18 18 18 18 19 18 17 16 16 16 16 16 16 16 17 17 17 17 17 17 17 18 19 19 19 19 19 19 20 20 20 20
21 20 19 19 18 18 17 17 17 16 16 16 16 16 17 17 17 16 16 15 15 15 15 16 16 16 16 17 16 17 17 18 18 18 19 18 18 18 18 19 19 19 19
21 20 19 18 17 17 17 16 16 16 15 14 14 15 15 15 15 15 15 15 14 15 15 15 15 15 15 15 15 16 17 17 18 18 18 17 17 17 17 17 17 18 18
19 18 18 17 17 17 16 15 15 15 14 13 13 14 14 15 15 16 15 14 14 14 14 14 14 15 15 15 15 16 16 17 17 17 16 17 16 16 16 16 17 17 17
18 17 16 16 17 17 16 16 15 14 13 13 13 13 13 13 14 13 14 14 14 13 14 14 14 15 15 15 15 15 15 16 16 16 16 16 16 15 15 15 16 16 17
17 16 16 16 16 16 16 16 15 14 14 14 14 13 13 12 13 13 13 13 13 13 13 14 15 14 14 14 14 14 14 14 15 15 15 15 15 15 15 15 15 16 16
16 16 16 16 16 16 16 16 15 15 14 14 13 13 13 12 12 13 13 14 14 14 14 15 15 15 14 14 14 14 13 13 13 14 14 14 14 14 15 15 16 16 16
17 16 15 15 15 15 15 16 15 15 15 14 14 14 14 13 12 12 12 13 13 14 14 14 14 14 14 14 14 13 14 14 14 14 14 14 14 14 15 15 15 15 16
17 16 16 16 15 15 15 15 15 15 14 14 14 14 15 14 13 13 13 13 13 13 14 13 12 13 14 14 14 14 14 14 14 14 14 14 14 14 15 15 15 15 15
Wind_Direction
273 273 274 276 275 273 274 275 273 270 269 269 269 269 270 272 273 276 279 282 285 283 280 278 277 277 277 277 277 278 277 277 277 279 279 277 277 278 278 277 276 275 277
272 273 275 275 276 275 275 277 276 273 273 272 270 270 270 273 274 277 279 282 284 283 281 279 278 278 277 278 278 277 275 275 276 278 279 279 279 280 278 278 277 278 279
272 274 275 274 277 278 277 276 276 274 274 273 271 270 272 274 276 278 278 280 282 283 281 279 279 280 278 278 277 277 276 275 276 276 277 279 279 279 279 280 279 279 280
273 274 275 275 277 278 277 275 276 277 277 276 273 273 273 276 278 279 279 279 282 282 280 279 280 280 279 278 276 275 275 276 276 277 278 280 280 280 281 281 280 281 280
274 273 273 275 275 277 277 279 280 281 281 280 274 273 274 275 277 278 279 279 279 280 281 281 279 279 278 277 276 275 276 277 278 279 280 281 281 281 283 282 282 282 281
275 275 275 276 276 278 280 281 282 283 281 278 276 273 273 273 275 277 278 278 280 280 280 279 277 277 276 276 277 277 279 280 281 281 281 280 279 280 282 283 283 283 284
276 277 277 278 280 280 279 280 281 282 280 278 277 274 273 273 274 275 276 278 280 280 279 277 276 279 278 280 280 280 281 282 281 282 283 282 280 279 281 284 284 285 286
279 279 280 279 280 281 281 281 281 280 280 279 277 276 275 275 275 276 277 279 280 280 279 277 277 279 279 281 281 281 281 283 283 281 283 284 282 280 282 283 284 285 286
278 278 279 281 280 280 281 281 281 280 278 277 276 275 275 275 275 277 278 280 281 281 279 278 277 278 279 279 280 280 280 281 281 282 282 284 282 281 283 285 284 284 286
279 280 281 281 281 280 280 281 279 278 278 277 275 275 276 277 278 277 279 280 280 280 279 278 276 277 282 282 281 280 280 280 281 282 283 285 284 284 285 285 285 286 288
280 281 282 282 281 280 280 280 278 279 278 277 276 276 276 277 278 280 281 280 279 278 278 278 277 278 280 282 282 282 282 280 281 282 284 286 287 287 287 287 287 289 291
279 280 281 281 281 280 278 278 277 277 276 275 276 276 276 277 279 281 279 280 279 277 277 277 279 279 279 281 282 282 280 280 282 283 286 289 290 289 287 289 290 290 290
279 280 281 281 280 279 277 278 277 275 274 274 275 275 276 277 278 278 278 278 279 279 277 279 280 280 280 281 283 283 281 281 282 286 289 291 291 290 287 289 291 290 290
280 281 282 282 279 278 277 277 277 275 275 274 274 274 276 276 277 277 278 277 278 279 280 280 282 282 282 283 283 283 283 284 286 288 290 290 291 291 291 291 292 294 293
280 281 282 281 280 279 278 278 277 275 274 274 273 273 273 274 276 278 276 276 276 276 279 280 280 281 283 284 285 285 286 287 288 288 289 291 291 292 293 293 293 294 295
281 281 282 281 280 280 278 278 277 276 272 271 272 271 271 273 274 275 275 275 274 274 276 277 278 280 282 282 284 285 287 288 288 289 289 292 293 294 294 293 293 295 296
281 281 281 280 279 279 278 279 278 276 273 271 271 272 272 273 274 275 274 274 273 274 275 276 276 278 282 284 285 285 286 288 289 289 290 294 295 295 296 295 294 295 297
280 280 279 278 277 277 279 280 278 273 270 271 271 272 272 272 274 274 270 269 270 273 275 275 277 280 283 285 284 284 285 287 289 291 292 293 295 295 295 296 295 296 297
281 280 280 278 276 277 278 280 276 271 270 271 271 270 269 268 267 266 264 265 267 272 275 277 279 282 284 287 286 285 285 287 289 291 294 293 295 296 296 297 297 297 298
281 280 279 276 274 274 276 276 274 272 270 269 271 271 269 266 262 262 263 265 269 274 277 277 279 281 286 290 289 288 287 288 290 291 293 296 297 298 298 299 299 299 299
278 278 277 273 270 272 273 272 271 270 267 268 272 273 272 264 259 259 262 265 268 273 275 276 280 284 287 291 293 292 289 288 289 290 292 295 296 296 298 298 299 300 301
274 273 272 270 269 270 269 269 269 264 265 268 270 272 272 266 261 262 265 268 270 271 272 274 278 283 287 290 291 291 291 292 290 290 294 296 297 297 297 299 301 303 305
273 269 269 270 269 268 266 266 265 264 265 266 266 268 268 265 263 261 264 267 268 268 271 275 281 284 288 291 293 293 292 292 292 290 293 296 299 300 300 299 302 307 309
272 270 269 269 269 265 264 263 262 261 263 265 264 265 265 265 265 264 263 266 268 267 270 275 282 284 287 289 288 289 291 292 293 294 294 296 300 302 302 302 303 306 309
273 272 269 266 266 265 265 262 261 259 260 263 263 263 262 266 269 269 266 265 267 266 271 276 280 281 283 287 289 290 292 292 291 293 295 297 298 300 303 304 305 307 309
273 271 269 267 264 264 265 263 261 259 259 261 263 264 264 265 268 267 264 264 264 263 267 272 277 281 285 288 289 289 289 289 289 291 295 297 298 300 302 303 305 308 311
Height
5796 5795 5795 5795 5794 5794 5793 5793 5792 5792 5792 5792 5791 5791 5790 5790 5789 5789 5788 5787 5786 5784 5783 5782 5781 5780 5779 5778 5777 5776 5775 5774 5774 5773 5772 5771 5769 5768 5766 5765 5764 5763 5762
5791 5791 5790 5790 5790 5789 5789 5788 5787 5787 5787 5786 5786 5785 5785 5784 5784 5783 5782 5781 5780 5779 5777 5776 5775 5774 5773 5771 5770 5770 5769 5768 5768 5767 5766 5765 5764 5762 5760 5759 5758 5756 5755
5787 5786 5785 5785 5785 5784 5783 5783 5782 5781 5781 5780 5780 5779 5779 5779 5778 5777 5776 5775 5774 5773 5772 5770 5769 5768 5766 5765 5764 5763 5763 5762 5761 5761 5760 5758 5757 5756 5754 5753 5751 5750 5748
5782 5781 5780 5780 5779 5779 5777 5777 5776 5775 5775 5774 5774 5774 5773 5773 5772 5771 5770 5769 5768 5767 5765 5764 5763 5762 5760 5759 5758 5757 5757 5756 5755 5754 5753 5752 5750 5749 5748 5746 5745 5743 5741
5777 5776 5776 5775 5773 5773 5772 5771 5770 5769 5769 5768 5767 5767 5767 5767 5766 5765 5764 5763 5762 5760 5759 5758 5757 5756 5755 5753 5752 5752 5751 5750 5749 5748 5747 5745 5744 5743 5742 5740 5738 5736 5735
5772 5771 5770 5769 5768 5767 5766 5765 5764 5763 5763 5762 5761 5761 5761 5761 5760 5759 5758 5757 5756 5755 5753 5752 5751 5750 5749 5748 5747 5746 5745 5744 5743 5741 5740 5739 5738 5737 5735 5734 5732 5730 5729
5765 5765 5764 5763 5763 5762 5761 5760 5758 5757 5756 5755 5755 5755 5754 5754 5754 5753 5752 5751 5750 5749 5747 5746 5745 5744 5743 5742 5741 5740 5739 5738 5737 5736 5734 5733 5731 5730 5729 5728 5725 5723 5722
5759 5758 5757 5757 5756 5755 5754 5753 5752 5751 5750 5749 5749 5749 5748 5748 5747 5746 5745 5744 5743 5742 5741 5740 5740 5739 5738 5737 5735 5734 5733 5732 5730 5729 5728 5726 5724 5723 5722 5721 5719 5717 5715
5752 5751 5751 5750 5749 5748 5747 5746 5745 5744 5743 5743 5742 5742 5742 5742 5741 5740 5739 5738 5737 5736 5735 5734 5733 5733 5732 5730 5729 5728 5727 5726 5724 5723 5722 5720 5718 5716 5715 5714 5712 5710 5708
5746 5745 5744 5743 5742 5741 5740 5739 5738 5737 5736 5736 5736 5736 5735 5735 5734 5733 5732 5731 5730 5729 5728 5727 5727 5726 5725 5724 5723 5722 5720 5719 5718 5716 5715 5713 5711 5710 5708 5707 5705 5703 5701
5739 5738 5737 5736 5735 5734 5733 5732 5731 5731 5730 5730 5729 5729 5729 5728 5727 5727 5726 5725 5724 5723 5722 5721 5720 5719 5718 5717 5716 5715 5714 5713 5711 5710 5708 5706 5705 5703 5701 5699 5698 5696 5694
5733 5732 5731 5729 5728 5727 5726 5725 5724 5724 5723 5723 5723 5722 5722 5721 5721 5720 5719 5718 5717 5716 5715 5714 5713 5713 5712 5711 5709 5708 5707 5706 5705 5703 5702 5700 5698 5696 5694 5692 5691 5689 5686
5727 5725 5724 5722 5721 5720 5719 5718 5717 5717 5717 5716 5716 5716 5715 5715 5714 5713 5712 5712 5711 5710 5709 5708 5707 5706 5705 5704 5703 5701 5701 5700 5699 5697 5696 5694 5692 5690 5688 5686 5684 5682 5679
5720 5719 5717 5716 5714 5713 5712 5711 5710 5710 5710 5710 5709 5709 5708 5708 5707 5706 5705 5705 5704 5703 5702 5702 5701 5699 5698 5697 5696 5695 5694 5693 5692 5691 5690 5688 5686 5684 5682 5679 5677 5675 5673
5713 5712 5710 5709 5707 5706 5705 5704 5703 5703 5702 5702 5702 5702 5701 5701 5700 5699 5698 5698 5697 5697 5696 5695 5695 5694 5693 5692 5691 5690 5689 5688 5687 5685 5684 5682 5680 5677 5675 5673 5671 5669 5666
5706 5705 5704 5702 5700 5699 5698 5697 5696 5696 5695 5695 5695 5695 5694 5694 5693 5693 5692 5691 5691 5690 5690 5689 5689 5688 5687 5686 5685 5685 5683 5682 5681 5680 5678 5676 5674 5671 5669 5667 5665 5662 5660
5699 5698 5696 5695 5694 5692 5691 5691 5690 5689 5688 5688 5688 5688 5687 5687 5687 5686 5685 5685 5684 5684 5684 5683 5683 5682 5682 5681 5680 5679 5678 5677 5675 5674 5672 5670 5668 5665 5663 5661 5658 5656 5654
5692 5691 5689 5688 5687 5686 5685 5684 5683 5682 5682 5682 5682 5681 5681 5681 5680 5679 5679 5678 5678 5678 5678 5677 5677 5677 5676 5675 5674 5673 5672 5671 5669 5668 5666 5664 5662 5660 5657 5655 5652 5650 5648
5684 5683 5682 5681 5680 5679 5679 5678 5677 5676 5676 5676 5675 5675 5675 5674 5674 5674 5673 5673 5673 5673 5672 5672 5672 5671 5671 5670 5668 5667 5666 5665 5664 5662 5660 5658 5656 5654 5652 5650 5647 5644 5642
5677 5676 5675 5674 5674 5673 5672 5672 5671 5670 5670 5670 5669 5669 5668 5668 5668 5668 5668 5668 5668 5668 5667 5667 5667 5666 5665 5664 5663 5661 5660 5659 5658 5656 5655 5653 5651 5649 5647 5644 5642 5639 5637
5670 5669 5668 5668 5668 5667 5666 5665 5665 5664 5664 5664 5664 5664 5663 5662 5662 5662 5663 5663 5663 5663 5662 5662 5662 5661 5660 5659 5657 5656 5655 5653 5652 5651 5649 5647 5645 5643 5641 5639 5637 5635 5632
5663 5662 5662 5661 5661 5661 5660 5660 5659 5659 5659 5659 5659 5659 5658 5657 5657 5658 5658 5658 5658 5658 5658 5657 5657 5656 5655 5654 5652 5651 5650 5648 5647 5645 5644 5642 5640 5638 5637 5635 5633 5630 5628
5656 5656 5656 5655 5655 5655 5655 5654 5654 5654 5654 5654 5655 5654 5654 5653 5653 5653 5653 5654 5653 5653 5653 5652 5652 5651 5650 5649 5648 5646 5645 5643 5642 5640 5639 5638 5636 5634 5632 5631 5629 5626 5624
5650 5650 5650 5650 5649 5649 5649 5649 5649 5649 5649 5650 5650 5650 5649 5649 5649 5649 5649 5649 5649 5649 5648 5648 5647 5647 5646 5644 5643 5641 5640 5638 5637 5636 5635 5634 5632 5630 5628 5626 5624 5622 5620
5645 5644 5644 5644 5644 5644 5644 5643 5644 5644 5644 5645 5645 5645 5645 5645 5645 5644 5644 5644 5644 5644 5644 5643 5642 5642 5641 5640 5639 5637 5636 5634 5633 5632 5631 5629 5628 5626 5624 5622 5620 5618 5616
5639 5639 5639 5638 5638 5638 5638 5638 5639 5639 5639 5640 5640 5640 5641 5641 5641 5640 5640 5640 5640 5640 5639 5639 5638 5637 5636 5635 5634 5633 5631 5630 5629 5628 5626 5625 5624 5622 5620 5618 5616 5614 5612